Weather in Posolskoye

Russia / Republic of Buryatia     52°01′19″N   106°11′11″E
temp.,
°C
wind,
m/s
gust,
m/s
humid.,
%
clouds,
%
prec.,
mm/h
press.,
hPa
HPBL,
m
14 may, fri
fri1423:000sw34718 0.0 101854
02:000ssw357392 0.0 101997
05:000sw467799 0.0 1020150
08:00+3wsw576068 0.0 1020380
11:00+7wsw66485 0.0 1019715
14:00+9wsw77405 0.0 1017752
17:00+10wsw56380 0.0 1016558
20:00+8ssw22460 0.0 101613
15 may, sat
sat1523:00+5se32510 0.0 101621
02:00+4se22560 0.0 101615
05:00+2sse11635 0.0 101611
08:00+6w455228 0.0 1017268
11:00+8wsw810577 0.0 1019732
14:00+10wsw8958100 0.0 1019681
17:00+10wsw6852100 0.0 1017416
20:00+7sw3460100 0.0 101765
16 may, sun
sun1623:00+7ssw3455100 0.0 101745
02:00+6sw335997 0.0 101841
05:00+5s346529 0.0 101648
08:00+12ssw245355 0.0 1013171
11:00+12wsw585098 0.0 1012354
14:00+13n595799 0.0 1014791
17:00+12nw496795 0.0 1013806
20:00+10ssw22785 0.0 101226
17 may, mon
mon1723:00+8s338688 0.0 101027
02:00+7se228441 0.0 100617
05:00+6sw238734 0.0 100434
08:00+9sw5975100 0.2 1005218
11:00+7sw6109093 0.8 1008251
14:00+6wsw8149444 2.1 1010398
17:00+7wsw7138294 0.0 1010444
20:00+5sw7138754 0.0 1011423
18 may, tue
tue1823:00+4wsw5109313 0.1 1014248
02:00+2ssw359614 0.1 101586
05:00+3ssw3694100 0.0 1014116
08:00+6wsw348096 0.0 1014400
11:00+8wsw6669100 0.0 1012905
14:00+11wsw565846 0.1 1009763
17:00+11wnw2253100 0.0 1005392
20:00+8nne2269100 0.0 100322